EHI
0 0 0 0 0 0 0 0 0 0 0 0 1 2 3 6 10 12 15 21 28 34 37 37 39 40 39 35 32 28 27 27 28 29 27 23 17 13 10 10 10 11 12 12
0 0 0 0 0 0 0 0 0 0 0 0 0 1 1 3 7 10 13 20 28 34 37 39 40 40 37 34 31 27 25 25 26 27 28 24 19 15 11 10 8 8 9 10
0 0 0 0 0 0 0 0 0 0 0 0 0 0 0 1 4 8 12 18 25 33 38 42 43 40 34 30 27 26 24 23 22 24 27 27 23 17 13 10 6 5 7 9
0 0 0 0 0 0 0 0 0 0 0 0 0 0 0 1 3 7 11 16 23 31 38 42 41 37 32 27 24 24 24 21 20 21 24 26 24 17 11 8 6 5 7 9
0 0 0 0 0 0 0 0 0 0 0 0 0 0 0 1 3 6 11 16 21 27 34 37 36 34 30 27 26 25 23 21 20 19 20 21 18 13 10 8 6 6 7 7
0 0 0 0 0 0 0 0 0 0 0 0 0 0 0 0 1 5 10 14 19 24 28 30 31 30 28 28 29 28 25 23 21 19 18 16 14 12 10 9 9 8 8 8
0 0 0 0 0 0 0 0 0 0 0 0 0 0 0 0 1 3 7 12 18 22 25 26 27 26 26 27 29 29 28 26 22 19 17 16 15 13 13 12 11 11 11 10
0 0 0 0 0 0 0 0 0 0 0 0 0 0 0 0 1 3 7 12 16 21 24 27 26 24 24 25 26 28 29 28 25 22 19 17 15 14 13 13 12 11 10 9
0 0 0 0 0 0 0 0 0 0 0 0 0 0 1 2 3 6 10 13 16 21 27 30 29 24 22 23 24 25 27 28 27 24 20 17 15 14 13 13 12 10 9 9
0 0 0 0 0 0 0 0 0 0 0 0 0 0 1 3 6 9 11 13 16 21 26 28 27 24 21 21 21 22 23 25 25 23 21 17 14 13 13 13 12 11 10 10
0 0 0 0 0 0 0 0 0 0 0 0 0 0 1 4 7 9 11 12 14 17 20 21 22 21 19 18 18 17 19 21 21 22 21 19 16 14 13 13 13 12 10 10
0 0 0 0 0 0 0 0 0 0 0 0 0 0 1 4 7 9 11 12 12 13 14 16 18 18 17 15 14 14 15 17 19 21 21 20 18 16 14 13 12 11 10 9
0 0 0 0 0 0 0 0 0 0 0 0 0 0 1 5 8 10 12 13 13 12 13 15 17 18 17 15 13 13 14 16 17 19 20 19 18 17 15 12 10 9 8 7
0 0 0 0 0 0 0 0 0 0 0 0 0 0 1 5 9 11 12 13 13 13 13 14 15 16 17 16 14 13 15 16 16 16 17 17 17 16 14 12 9 7 7 7
0 0 0 0 0 0 0 0 0 0 0 0 0 0 1 4 8 10 10 11 11 11 11 11 12 14 15 15 14 13 14 15 15 15 15 15 16 14 12 10 9 8 8 7
0 0 0 0 0 0 0 0 0 0 0 1 1 1 1 4 7 7 7 7 7 7 6 6 9 11 12 14 13 11 12 14 15 15 14 13 13 11 11 10 10 9 8 7
0 0 0 0 0 0 0 0 0 1 1 1 2 2 2 4 4 4 5 5 3 2 2 3 5 6 8 10 11 11 12 14 15 15 13 12 11 10 10 11 10 8 7 6
0 0 0 0 0 0 0 0 1 2 2 2 3 3 3 4 3 3 4 3 1 0 0 1 2 4 5 7 8 10 10 11 13 13 12 11 10 9 9 9 8 6 5 6
0 0 0 0 0 0 0 1 1 2 2 2 2 3 3 4 4 3 2 1 1 0 0 0 1 3 4 5 6 7 8 8 9 11 11 10 9 8 7 6 5 4 4 4
0 0 0 0 0 0 0 1 1 1 1 1 1 1 2 3 3 1 1 0 0 0 0 0 1 3 4 4 5 6 6 6 7 8 9 8 8 6 4 3 3 3 3 3
0 0 0 0 0 0 0 0 0 0 0 0 0 0 0 1 1 0 0 0 1 1 1 1 1 2 2 2 3 4 6 7 7 7 6 6 6 5 4 3 3 3 2 1
0 0 0 0 0 0 0 0 0 0 0 0 0 0 0 0 0 1 1 1 2 3 3 3 2 2 2 1 2 3 4 6 7 6 4 4 4 4 3 2 2 2 1 1
0 0 0 0 0 0 0 0 0 0 0 0 0 0 0 0 1 2 2 2 3 4 4 4 4 4 3 2 2 2 2 3 5 4 2 1 1 1 1 1 0 1 1 1
0 0 0 0 0 1 1 1 0 0 0 0 0 0 0 0 1 3 3 3 3 4 4 4 5 5 4 4 2 1 1 1 2 2 1 0 0 0 0 0 0 0 0 0
0 0 0 0 0 1 2 1 0 0 0 0 0 0 0 1 2 3 3 3 3 4 4 4 4 5 5 5 2 0 0 0 1 1 0 0 0 0 0 0 0 0 0 0
0 0 0 0 0 1 1 0 0 0 0 0 0 0 1 2 3 3 3 3 3 4 4 4 4 5 6 5 3 1 0 0 0 0 0 0 0 0 0 0 0 0 0 0
Wind_Speed
2 3 5 9 9 8 5 5 7 8 6 1 4 4 5 4 5 7 7 8 9 8 7 6 7 7 7 7 7 6 6 4 4 4 3 3 3 2 2 2 3 3 3 3
1 7 13 9 7 7 7 7 8 7 4 2 3 4 4 4 6 7 10 10 9 8 7 7 6 6 7 7 7 6 6 5 4 4 3 3 3 2 2 1 2 3 3 3
9 9 7 7 6 6 8 7 7 6 4 2 2 2 2 1 2 4 7 9 9 11 10 9 8 7 6 6 7 7 6 5 4 4 3 3 3 2 1 1 1 2 2 3
8 8 5 6 8 7 8 8 6 5 1 3 2 1 5 3 0 2 4 6 7 8 9 8 8 8 7 6 5 5 5 5 4 4 5 6 4 4 3 2 2 1 2 3
7 5 5 7 9 7 8 6 4 4 3 1 1 3 5 1 1 3 3 5 7 8 9 9 9 9 7 6 6 5 4 4 4 5 5 5 4 3 2 2 2 1 1 2
8 5 5 7 7 6 4 1 3 3 4 1 4 3 4 3 5 4 4 4 5 6 7 7 6 7 6 5 5 5 5 4 4 5 4 5 5 4 4 3 2 1 1 1
6 7 5 2 2 2 2 4 3 4 3 5 3 3 5 4 4 5 5 4 4 5 6 7 7 6 6 5 5 5 5 4 4 5 4 4 5 5 5 3 3 2 2 1
3 6 4 2 4 4 3 8 7 5 4 4 1 2 4 3 3 4 4 4 5 4 5 6 7 7 6 6 5 5 5 4 4 4 4 3 4 3 3 3 3 3 2 3
3 5 5 2 2 5 3 3 7 7 2 1 2 2 3 2 3 4 4 5 5 5 5 6 6 6 6 7 6 6 5 4 4 4 4 4 3 3 3 3 2 2 2 2
4 3 5 3 3 1 5 6 5 5 4 2 2 3 4 2 2 3 3 4 3 4 5 6 6 6 5 5 6 5 6 5 4 4 4 3 3 3 3 3 2 2 1 1
3 2 4 3 0 1 2 2 3 4 6 6 3 5 4 5 5 5 4 4 4 5 5 5 4 4 4 4 4 4 4 4 4 4 4 3 3 3 3 3 2 2 2 1
2 5 2 4 3 2 3 3 4 4 3 4 4 5 2 2 3 5 5 5 4 4 5 5 4 4 3 3 3 3 4 4 4 4 4 4 4 3 3 3 2 2 2 2
2 5 2 6 7 5 2 1 2 4 4 3 4 5 1 2 3 3 4 4 4 4 3 3 3 3 3 3 3 3 4 4 4 4 4 4 3 4 3 3 2 2 2 2
4 4 5 6 5 2 1 3 1 4 3 3 4 4 1 1 2 2 3 3 3 4 4 3 3 2 3 3 3 3 3 3 4 4 4 4 4 4 4 3 2 2 1 1
5 3 1 3 2 0 1 2 1 1 4 5 5 5 5 4 3 3 4 4 3 3 2 2 2 2 3 3 3 3 3 3 4 4 4 4 4 4 3 3 3 2 1 2
3 3 1 2 2 1 2 2 1 1 1 2 3 1 2 3 3 3 4 4 3 2 1 1 1 2 3 3 4 3 3 3 3 5 5 4 3 3 4 3 3 2 2 1
2 3 2 2 3 2 3 2 2 1 0 4 4 4 4 4 4 4 3 4 3 2 1 0 1 1 2 3 3 4 3 3 3 4 4 4 4 4 4 4 3 3 3 2
5 4 3 1 2 3 4 2 2 3 3 2 2 4 6 5 5 3 2 3 3 2 1 1 1 1 1 1 1 2 3 3 3 3 3 3 4 4 3 3 3 2 2 2
6 6 3 3 2 3 3 3 1 1 2 2 3 4 5 6 5 3 1 1 2 2 2 2 2 1 1 0 1 2 2 2 2 3 3 3 4 4 3 3 3 2 2 2
4 5 5 3 2 4 4 5 3 4 1 3 3 4 4 4 3 1 1 1 2 2 2 1 1 2 1 1 2 3 3 2 1 2 2 2 3 3 3 3 2 2 2 2
3 3 2 3 3 4 4 5 2 3 4 2 2 2 3 2 4 3 1 2 2 2 2 2 2 2 0 0 2 3 2 1 1 1 2 2 2 2 2 2 1 1 1 1
3 2 1 2 2 5 3 3 2 3 2 1 2 3 4 4 4 3 3 3 2 2 2 2 2 1 1 1 2 2 1 1 1 2 2 2 1 1 1 1 0 1 2 2
2 4 4 5 5 4 1 2 2 3 3 2 2 2 4 5 4 3 2 2 2 2 1 1 1 2 2 1 2 2 1 1 2 2 2 1 1 1 1 1 1 0 1 2
2 1 2 1 1 1 1 3 3 3 2 2 2 3 4 5 4 4 3 2 1 1 1 1 2 2 1 1 1 1 1 1 3 3 2 2 2 1 1 1 1 1 1 1
3 0 1 1 1 1 1 2 3 2 3 3 2 2 4 5 4 4 3 2 2 1 1 1 2 2 1 1 1 1 1 2 3 2 2 2 2 1 1 1 0 1 2 3
2 3 4 5 6 4 4 3 3 3 3 3 3 3 3 4 4 4 3 2 2 2 1 1 1 1 1 1 1 1 2 2 3 2 1 1 1 1 1 1 2 3 2 2
Wind_Direction
224 124 216 223 210 209 230 257 264 266 265 218 200 210 209 188 156 151 150 151 151 156 153 142 142 143 139 133 132 137 138 150 148 145 147 147 155 150 144 159 151 146 143 140
1 239 229 223 231 231 244 259 267 280 274 199 206 229 215 189 180 172 161 163 163 151 140 141 139 140 141 142 141 146 150 152 160 163 164 158 149 152 149 145 139 153 154 161
209 237 224 216 232 239 247 232 241 251 301 346 104 340 289 241 161 138 151 160 157 158 159 156 151 151 149 151 153 150 154 152 158 155 133 119 97 88 98 132 179 195 175 166
238 244 234 232 235 217 247 243 229 232 220 271 128 232 278 252 310 133 147 152 158 161 156 155 157 157 157 161 157 150 154 152 151 148 150 153 156 166 191 186 186 195 184 174
248 233 221 233 237 220 230 242 231 229 194 235 324 153 274 328 214 224 193 168 167 164 158 161 166 163 162 160 155 152 146 145 145 149 153 155 158 172 165 160 151 169 183 177
247 256 220 224 240 222 217 351 9 38 74 258 237 166 260 227 209 210 198 183 168 159 161 159 157 152 153 157 152 147 144 152 151 149 149 153 154 150 142 151 162 181 196 201
294 287 273 229 262 306 87 89 28 357 6 250 235 155 235 236 202 190 185 183 155 147 150 152 150 149 153 151 150 148 148 157 161 156 160 164 159 151 155 165 173 176 184 202
242 284 273 229 182 196 195 142 159 193 222 269 305 214 247 253 194 165 158 150 133 132 140 151 160 157 154 154 154 155 163 168 168 166 168 165 157 157 164 163 172 181 195 204
192 260 288 259 203 153 166 175 171 147 180 214 267 270 298 359 97 118 117 120 136 141 145 149 147 148 157 161 165 168 168 169 170 172 165 163 164 161 162 164 166 180 198 192
163 249 291 306 22 16 162 161 109 124 159 230 254 236 236 258 171 144 129 125 142 145 148 143 141 146 156 167 167 165 167 174 175 167 172 165 170 172 167 161 172 183 191 184
133 153 308 349 156 230 53 82 121 138 155 164 220 257 230 201 184 159 150 141 144 145 145 139 141 150 144 145 157 161 167 167 172 174 171 166 172 171 160 164 184 193 190 185
122 122 258 273 271 190 144 146 135 151 209 169 170 257 285 177 158 147 147 146 153 156 156 144 141 143 141 140 155 173 177 178 186 181 166 174 178 174 173 179 186 181 186 195
109 106 51 339 342 3 44 60 125 137 133 158 165 247 311 88 88 116 137 144 144 141 140 132 133 151 161 160 166 186 197 192 182 169 167 173 179 178 186 189 184 175 179 190
111 107 152 196 231 262 312 320 356 119 148 191 199 207 239 112 110 112 113 131 137 138 131 132 141 165 174 171 179 189 208 188 169 169 172 176 182 181 191 193 179 178 179 204
93 116 202 237 260 92 224 271 306 169 183 186 211 199 207 192 170 143 109 98 95 106 109 138 170 183 174 172 189 193 201 196 175 169 176 185 184 170 169 185 179 171 188 234
77 126 75 312 320 353 319 315 278 256 191 168 140 211 212 142 121 106 103 106 100 100 103 153 217 207 184 183 190 191 197 198 178 172 184 186 174 164 171 180 175 172 195 247
97 115 105 270 299 344 296 280 264 266 352 164 183 214 167 132 133 139 136 128 130 127 131 197 250 247 222 205 192 187 187 179 166 173 183 186 178 177 186 185 172 179 182 192
144 125 134 196 15 237 246 266 125 104 36 44 121 158 158 153 137 115 122 137 152 168 178 218 259 282 279 240 181 167 155 157 164 176 189 192 182 182 188 183 177 188 182 184
149 140 133 135 184 258 292 318 330 122 353 354 125 128 130 128 90 46 23 125 159 167 171 192 188 193 282 238 162 144 150 151 161 180 194 199 181 175 175 181 190 188 174 185
83 108 122 138 174 230 262 300 314 103 11 336 95 127 144 120 111 234 286 100 99 105 115 118 108 87 86 233 158 139 137 130 183 207 197 182 167 165 173 193 197 191 177 189
46 51 124 164 198 255 285 308 27 129 227 263 99 125 125 136 173 184 137 84 83 92 100 93 92 90 61 62 118 122 120 164 233 190 148 145 156 161 166 177 195 178 171 165
147 145 178 149 186 249 306 31 106 205 182 111 95 109 116 120 119 115 101 88 75 73 87 90 92 71 31 63 94 93 107 240 129 116 121 142 158 167 137 135 185 187 167 172
158 184 180 177 205 238 312 138 156 134 116 115 118 136 127 118 122 119 109 100 73 55 76 80 100 77 44 45 84 100 303 21 95 101 104 112 103 68 114 130 142 131 157 165
308 79 105 103 245 245 102 99 98 99 121 137 125 132 121 127 135 126 115 104 72 36 59 90 94 83 41 28 59 94 53 89 106 104 95 94 90 68 61 101 139 168 200 195
256 27 87 234 242 68 43 111 125 99 92 93 91 118 129 123 125 129 127 125 122 98 45 90 104 113 103 74 62 38 59 84 92 94 86 76 81 86 62 38 249 229 242 213
231 180 180 220 215 180 214 206 146 122 124 127 119 106 107 125 138 130 129 131 124 106 82 65 63 80 82 84 69 33 54 90 96 85 72 65 51 20 47 47 3 346 291 270